| time (UTC) | temp C | wind direction | speed KPH | gust KPH | rain 1hr cm | rain 24hr cm | rain mn cm | humidity % | barometer mb |
| 20260507203505 | 16 | 346 | 6.4 | 20.9 | 0.00 | 0.15 | 0.15 | 45 | 1007.4 |
| 20260507203005 | 16 | 17 | 6.4 | 19.3 | 0.00 | 0.15 | 0.15 | 43 | 1007.4 |
| 20260507202505 | 16 | 10 | 9.7 | 16.1 | 0.00 | 0.15 | 0.15 | 46 | 1007.4 |
| 20260507201005 | 16 | 116 | 1.6 | 9.7 | 0.00 | 0.15 | 0.15 | 48 | 1007.6 |
| 20260507200005 | 15 | 73 | 0.0 | 0.0 | 0.00 | 0.15 | 0.15 | 51 | 1007.7 |
| 20260507195505 | 15 | 73 | 0.0 | 4.8 | 0.00 | 0.15 | 0.15 | 51 | 1007.6 |
| 20260507195005 | 15 | 73 | 1.6 | 8.0 | 0.00 | 0.15 | 0.15 | 52 | 1007.7 |
| 20260507194504 | 14 | 72 | 3.2 | 8.0 | 0.00 | 0.15 | 0.15 | 55 | 1007.8 |
| 20260507194005 | 14 | 53 | 3.2 | 8.0 | 0.00 | 0.15 | 0.15 | 54 | 1007.8 |
| 20260507193505 | 14 | 52 | 3.2 | 8.0 | 0.00 | 0.15 | 0.15 | 56 | 1007.9 |
| 20260507193005 | 14 | 21 | 1.6 | 9.7 | 0.00 | 0.15 | 0.15 | 58 | 1008.0 |
| 20260507192005 | 14 | 75 | 3.2 | 11.3 | 0.00 | 0.15 | 0.15 | 57 | 1008.0 |
| 20260507191505 | 14 | 99 | 1.6 | 14.5 | 0.00 | 0.15 | 0.15 | 59 | 1008.1 |
| 20260507191005 | 14 | 101 | 8.0 | 14.5 | 0.00 | 0.15 | 0.15 | 60 | 1008.1 |
| 20260507185505 | 13 | 82 | 6.4 | 12.9 | 0.00 | 0.15 | 0.15 | 61 | 1008.2 |
| 20260507185006 | 13 | 62 | 8.0 | 12.9 | 0.00 | 0.15 | 0.15 | 59 | 1008.2 |
| 20260507184504 | 13 | 88 | 4.8 | 12.9 | 0.00 | 0.15 | 0.15 | 60 | 1008.2 |
| 20260507184005 | 13 | 63 | 4.8 | 12.9 | 0.00 | 0.15 | 0.15 | 60 | 1008.3 |
| 20260507183505 | 13 | 85 | 6.4 | 14.5 | 0.00 | 0.15 | 0.15 | 60 | 1008.3 |
| 20260507183004 | 13 | 36 | 4.8 | 14.5 | 0.00 | 0.15 | 0.15 | 61 | 1008.3 |
| 20260507182005 | 13 | 43 | 4.8 | 14.5 | 0.00 | 0.15 | 0.15 | 61 | 1008.2 |
| 20260507181505 | 13 | 62 | 8.0 | 19.3 | 0.00 | 0.15 | 0.15 | 58 | 1008.2 |
| 20260507181005 | 13 | 31 | 8.0 | 19.3 | 0.00 | 0.15 | 0.15 | 60 | 1008.1 |
| 20260507175505 | 13 | 36 | 14.5 | 24.1 | 0.00 | 0.15 | 0.15 | 61 | 1008.1 |
| 20260507175005 | 13 | 35 | 11.3 | 24.1 | 0.00 | 0.15 | 0.15 | 62 | 1008.0 |
| 20260507174005 | 13 | 52 | 9.7 | 19.3 | 0.00 | 0.15 | 0.15 | 64 | 1007.9 |
| 20260507173505 | 13 | 57 | 8.0 | 19.3 | 0.00 | 0.15 | 0.15 | 63 | 1008.0 |
| 20260507173005 | 13 | 62 | 11.3 | 19.3 | 0.00 | 0.15 | 0.15 | 63 | 1007.9 |
| 20260507172505 | 13 | 74 | 6.4 | 12.9 | 0.00 | 0.15 | 0.15 | 62 | 1007.9 |
| 20260507172005 | 13 | 35 | 1.6 | 19.3 | 0.00 | 0.15 | 0.15 | 61 | 1007.9 |
| 20260507171504 | 13 | 342 | 6.4 | 19.3 | 0.00 | 0.15 | 0.15 | 61 | 1007.9 |
| 20260507171005 | 13 | 306 | 9.7 | 19.3 | 0.00 | 0.15 | 0.15 | 59 | 1007.8 |
| 20260507170005 | 13 | 282 | 14.5 | 20.9 | 0.00 | 0.15 | 0.15 | 62 | 1007.8 |
| 20260507165505 | 13 | 262 | 14.5 | 19.3 | 0.00 | 0.15 | 0.15 | 63 | 1007.8 |
| 20260507165005 | 13 | 265 | 14.5 | 19.3 | 0.00 | 0.15 | 0.15 | 65 | 1007.9 |
| 20260507164504 | 12 | 267 | 14.5 | 19.3 | 0.00 | 0.15 | 0.15 | 66 | 1007.9 |
| 20260507163505 | 12 | 267 | 16.1 | 24.1 | 0.00 | 0.15 | 0.15 | 67 | 1008.1 |
| 20260507163005 | 12 | 267 | 17.7 | 24.1 | 0.00 | 0.15 | 0.15 | 67 | 1008.0 |
| 20260507162005 | 12 | 248 | 12.9 | 19.3 | 0.00 | 0.15 | 0.15 | 67 | 1008.0 |
| 20260507161505 | 12 | 261 | 14.5 | 19.3 | 0.00 | 0.15 | 0.15 | 66 | 1007.9 |
| 20260507161005 | 12 | 252 | 11.3 | 19.3 | 0.00 | 0.15 | 0.15 | 68 | 1007.9 |
| 20260507160005 | 12 | 272 | 14.5 | 19.3 | 0.00 | 0.15 | 0.15 | 66 | 1007.9 |
| 20260507155505 | 12 | 270 | 14.5 | 19.3 | 0.00 | 0.15 | 0.15 | 65 | 1007.9 |
| 20260507155005 | 12 | 269 | 14.5 | 19.3 | 0.00 | 0.15 | 0.15 | 66 | 1007.9 |
| 20260507154505 | 12 | 284 | 11.3 | 19.3 | 0.00 | 0.15 | 0.15 | 66 | 1007.9 |
| 20260507154006 | 12 | 270 | 14.5 | 20.9 | 0.00 | 0.15 | 0.15 | 65 | 1007.9 |
| 20260507153505 | 12 | 247 | 16.1 | 25.7 | 0.00 | 0.15 | 0.15 | 65 | 1007.9 |
| 20260507153005 | 12 | 258 | 16.1 | 25.7 | 0.00 | 0.15 | 0.15 | 66 | 1007.8 |
| 20260507152505 | 11 | 262 | 16.1 | 32.2 | 0.00 | 0.15 | 0.15 | 67 | 1007.8 |
| 20260507152005 | 11 | 268 | 16.1 | 32.2 | 0.00 | 0.15 | 0.15 | 67 | 1007.8 |
| 20260507151505 | 11 | 256 | 20.9 | 32.2 | 0.00 | 0.15 | 0.15 | 66 | 1007.9 |
| 20260507151005 | 11 | 278 | 22.5 | 32.2 | 0.00 | 0.15 | 0.15 | 66 | 1007.9 |
| 20260507150006 | 11 | 262 | 20.9 | 32.2 | 0.00 | 0.15 | 0.15 | 66 | 1007.7 |
| 20260507145505 | 11 | 266 | 22.5 | 32.2 | 0.00 | 0.15 | 0.15 | 68 | 1007.6 |
| 20260507145005 | 11 | 263 | 24.1 | 32.2 | 0.00 | 0.15 | 0.15 | 67 | 1007.7 |
| 20260507144505 | 11 | 262 | 24.1 | 32.2 | 0.00 | 0.15 | 0.15 | 67 | 1007.6 |
| 20260507144005 | 11 | 258 | 22.5 | 32.2 | 0.00 | 0.15 | 0.15 | 67 | 1007.6 |
| 20260507143504 | 11 | 252 | 22.5 | 33.8 | 0.00 | 0.15 | 0.15 | 69 | 1007.7 |
| 20260507143004 | 11 | 247 | 22.5 | 33.8 | 0.00 | 0.15 | 0.15 | 70 | 1007.7 |
| 20260507142505 | 10 | 237 | 20.9 | 32.2 | 0.00 | 0.15 | 0.15 | 71 | 1007.6 |
| 20260507141505 | 10 | 253 | 20.9 | 37.0 | 0.00 | 0.15 | 0.15 | 72 | 1007.6 |
| 20260507135511 | 10 | 272 | 25.7 | 35.4 | 0.00 | 0.15 | 0.15 | 72 | 1007.8 |
| 20260507135004 | 10 | 256 | 25.7 | 41.8 | 0.00 | 0.15 | 0.15 | 72 | 1007.8 |
| 20260507134505 | 10 | 265 | 29.0 | 45.1 | 0.00 | 0.15 | 0.15 | 72 | 1007.8 |
| 20260507134005 | 10 | 266 | 33.8 | 45.1 | 0.00 | 0.15 | 0.15 | 73 | 1007.9 |
| 20260507133504 | 10 | 255 | 33.8 | 41.8 | 0.00 | 0.15 | 0.15 | 73 | 1008.0 |
| 20260507132505 | 9 | 247 | 30.6 | 38.6 | 0.00 | 0.15 | 0.15 | 77 | 1007.9 |
| 20260507132005 | 9 | 251 | 24.1 | 35.4 | 0.00 | 0.15 | 0.15 | 80 | 1007.8 |
| 20260507131505 | 8 | 256 | 25.7 | 32.2 | 0.00 | 0.15 | 0.15 | 81 | 1007.7 |
| 20260507131005 | 8 | 238 | 19.3 | 25.7 | 0.00 | 0.15 | 0.15 | 83 | 1007.8 |
| 20260507130005 | 8 | 245 | 16.1 | 22.5 | 0.00 | 0.15 | 0.15 | 80 | 1008.2 |
| 20260507125504 | 9 | 239 | 16.1 | 29.0 | 0.00 | 0.15 | 0.15 | 76 | 1008.3 |
| 20260507125005 | 9 | 243 | 20.9 | 33.8 | 0.00 | 0.15 | 0.15 | 75 | 1008.1 |
| 20260507124505 | 9 | 272 | 27.4 | 33.8 | 0.00 | 0.15 | 0.15 | 74 | 1008.0 |
| 20260507124005 | 10 | 268 | 27.4 | 32.2 | 0.00 | 0.15 | 0.15 | 74 | 1007.9 |
| 20260507123505 | 9 | 285 | 25.7 | 38.6 | 0.00 | 0.15 | 0.15 | 76 | 1007.9 |
| 20260507122505 | 9 | 258 | 27.4 | 41.8 | 0.00 | 0.15 | 0.15 | 80 | 1008.2 |
| 20260507122005 | 9 | 282 | 29.0 | 41.8 | 0.00 | 0.15 | 0.15 | 78 | 1008.5 |
| 20260507121504 | 9 | 289 | 32.2 | 41.8 | 0.00 | 0.15 | 0.15 | 79 | 1008.5 |
| 20260507121005 | 9 | 285 | 27.4 | 41.8 | 0.00 | 0.15 | 0.15 | 78 | 1008.5 |
| 20260507120005 | 9 | 250 | 20.9 | 32.2 | 0.00 | 0.15 | 0.15 | 78 | 1007.8 |
| 20260507115505 | 9 | 249 | 19.3 | 27.4 | 0.00 | 0.15 | 0.15 | 79 | 1007.7 |
| 20260507115005 | 8 | 239 | 14.5 | 22.5 | 0.00 | 0.15 | 0.15 | 80 | 1007.4 |
| 20260507114505 | 8 | 241 | 14.5 | 24.1 | 0.00 | 0.15 | 0.15 | 81 | 1007.5 |
| 20260507114005 | 9 | 254 | 19.3 | 24.1 | 0.00 | 0.15 | 0.15 | 80 | 1007.6 |
| 20260507113005 | 9 | 249 | 16.1 | 27.4 | 0.00 | 0.15 | 0.15 | 79 | 1007.5 |
| 20260507112505 | 9 | 266 | 20.9 | 27.4 | 0.00 | 0.15 | 0.15 | 79 | 1007.7 |
| 20260507112005 | 9 | 249 | 20.9 | 25.7 | 0.00 | 0.15 | 0.15 | 79 | 1007.7 |
| 20260507111506 | 9 | 245 | 16.1 | 24.1 | 0.00 | 0.15 | 0.15 | 79 | 1007.6 |
| 20260507111004 | 9 | 262 | 16.1 | 24.1 | 0.00 | 0.15 | 0.15 | 80 | 1007.5 |
| 20260507105504 | 8 | 242 | 12.9 | 19.3 | 0.00 | 0.15 | 0.15 | 82 | 1008.1 |
| 20260507105005 | 8 | 248 | 12.9 | 19.3 | 0.00 | 0.15 | 0.15 | 84 | 1008.2 |
| 20260507104505 | 8 | 262 | 12.9 | 19.3 | 0.00 | 0.15 | 0.15 | 84 | 1007.9 |
| 20260507104005 | 8 | 268 | 8.0 | 19.3 | 0.00 | 0.15 | 0.15 | 84 | 1007.8 |
| 20260507103505 | 8 | 244 | 11.3 | 19.3 | 0.00 | 0.15 | 0.15 | 83 | 1007.8 |
| 20260507103004 | 9 | 243 | 12.9 | 19.3 | 0.00 | 0.15 | 0.15 | 82 | 1007.8 |
| 20260507102505 | 9 | 241 | 9.7 | 25.7 | 0.00 | 0.15 | 0.15 | 82 | 1007.7 |
| 20260507102006 | 9 | 242 | 16.1 | 25.7 | 0.00 | 0.15 | 0.15 | 81 | 1007.8 |
| 20260507101506 | 10 | 269 | 16.1 | 25.7 | 0.00 | 0.15 | 0.15 | 77 | 1008.0 |
| 20260507101004 | 10 | 257 | 20.9 | 27.4 | 0.00 | 0.15 | 0.15 | 76 | 1007.8 |
| 20260507100005 | 10 | 245 | 20.9 | 32.2 | 0.00 | 0.15 | 0.15 | 74 | 1007.9 |
| 20260507095504 | 10 | 254 | 20.9 | 32.2 | 0.00 | 0.15 | 0.15 | 74 | 1007.9 |
| 20260507095005 | 10 | 237 | 17.7 | 25.7 | 0.00 | 0.15 | 0.15 | 74 | 1007.7 |
| 20260507094505 | 10 | 242 | 19.3 | 25.7 | 0.00 | 0.15 | 0.15 | 73 | 1007.9 |
| 20260507094005 | 10 | 254 | 19.3 | 24.1 | 0.00 | 0.15 | 0.15 | 74 | 1008.0 |
| 20260507093505 | 10 | 236 | 16.1 | 24.1 | 0.00 | 0.15 | 0.15 | 75 | 1008.1 |
| 20260507093004 | 10 | 240 | 16.1 | 24.1 | 0.00 | 0.15 | 0.15 | 76 | 1008.1 |
| 20260507092505 | 10 | 245 | 19.3 | 25.7 | 0.00 | 0.15 | 0.15 | 76 | 1008.1 |
| 20260507091505 | 10 | 260 | 17.7 | 32.2 | 0.00 | 0.15 | 0.15 | 77 | 1008.3 |
| 20260507091004 | 10 | 249 | 20.9 | 32.2 | 0.00 | 0.15 | 0.15 | 78 | 1008.3 |
| 20260507090005 | 9 | 247 | 16.1 | 24.1 | 0.00 | 0.15 | 0.15 | 81 | 1008.5 |
| 20260507085505 | 9 | 267 | 17.7 | 24.1 | 0.00 | 0.15 | 0.15 | 82 | 1008.4 |
| 20260507085005 | 9 | 238 | 20.9 | 25.7 | 0.00 | 0.15 | 0.15 | 82 | 1008.0 |
| 20260507084504 | 9 | 245 | 16.1 | 25.7 | 0.00 | 0.15 | 0.15 | 83 | 1008.4 |
| 20260507084005 | 9 | 260 | 19.3 | 27.4 | 0.00 | 0.15 | 0.15 | 83 | 1008.6 |
| 20260507083505 | 9 | 243 | 19.3 | 27.4 | 0.00 | 0.15 | 0.15 | 83 | 1008.7 |
| 20260507083005 | 9 | 251 | 20.9 | 27.4 | 0.00 | 0.15 | 0.15 | 83 | 1009.0 |
| 20260507082505 | 9 | 241 | 11.3 | 19.3 | 0.00 | 0.15 | 0.15 | 84 | 1009.2 |
| 20260507082005 | 8 | 239 | 14.5 | 19.3 | 0.03 | 0.15 | 0.15 | 85 | 1009.1 |
| 20260507081505 | 8 | 245 | 14.5 | 19.3 | 0.03 | 0.15 | 0.15 | 85 | 1009.2 |
| 20260507081004 | 8 | 240 | 14.5 | 22.5 | 0.03 | 0.15 | 0.15 | 85 | 1009.3 |
| 20260507080004 | 9 | 226 | 9.7 | 16.1 | 0.05 | 0.15 | 0.15 | 84 | 1009.4 |
| 20260507075504 | 9 | 243 | 9.7 | 14.5 | 0.05 | 0.15 | 0.15 | 84 | 1009.6 |
| 20260507075004 | 9 | 200 | 8.0 | 14.5 | 0.08 | 0.15 | 0.15 | 84 | 1009.7 |
| 20260507074504 | 9 | 213 | 3.2 | 11.3 | 0.10 | 0.15 | 0.15 | 84 | 1009.7 |
| 20260507074004 | 9 | 205 | 4.8 | 11.3 | 0.15 | 0.15 | 0.15 | 84 | 1009.8 |
| 20260507073005 | 9 | 245 | 8.0 | 16.1 | 0.15 | 0.15 | 0.15 | 83 | 1010.0 |
| 20260507072505 | 9 | 272 | 8.0 | 19.3 | 0.15 | 0.15 | 0.15 | 82 | 1010.1 |
| 20260507072006 | 9 | 260 | 9.7 | 19.3 | 0.13 | 0.13 | 0.13 | 82 | 1010.1 |
| 20260507071504 | 9 | 282 | 6.4 | 11.3 | 0.13 | 0.13 | 0.13 | 82 | 1010.4 |
| 20260507071004 | 9 | 277 | 4.8 | 9.7 | 0.13 | 0.13 | 0.13 | 82 | 1010.3 |
| 20260507070009 | 10 | 260 | 3.2 | 11.3 | 0.10 | 0.10 | 0.10 | 79 | 1010.1 |
| 20260507065505 | 10 | 278 | 4.8 | 11.3 | 0.10 | 0.10 | 0.10 | 77 | 1010.1 |
| 20260507065005 | 10 | 333 | 4.8 | 12.9 | 0.08 | 0.08 | 0.08 | 76 | 1010.2 |
| 20260507064004 | 10 | 330 | 9.7 | 14.5 | 0.00 | 0.00 | 0.00 | 70 | 1009.8 |
| 20260507063505 | 11 | 340 | 9.7 | 16.1 | 0.00 | 0.00 | 0.00 | 70 | 1009.6 |
| 20260507062505 | 11 | 9 | 6.4 | 19.3 | 0.00 | 0.00 | 0.00 | 69 | 1009.3 |
| 20260507062004 | 11 | 346 | 11.3 | 27.4 | 0.00 | 0.00 | 0.00 | 67 | 1009.2 |
| 20260507061005 | 12 | 340 | 20.9 | 32.2 | 0.00 | 0.00 | 0.00 | 62 | 1009.6 |
| 20260507060004 | 12 | 328 | 22.5 | 48.3 | 0.00 | 0.00 | 0.00 | 59 | 1009.5 |
| 20260507055004 | 13 | 320 | 27.4 | 38.6 | 0.00 | 0.00 | 0.00 | 47 | 1009.2 |
| 20260507054505 | 14 | 309 | 16.1 | 25.7 | 0.00 | 0.00 | 0.00 | 41 | 1008.9 |
| 20260507053005 | 14 | 278 | 14.5 | 20.9 | 0.00 | 0.00 | 0.00 | 40 | 1008.4 |
| 20260507052004 | 14 | 258 | 14.5 | 19.3 | 0.00 | 0.00 | 0.00 | 39 | 1008.3 |
| 20260507051504 | 14 | 255 | 14.5 | 19.3 | 0.00 | 0.00 | 0.00 | 39 | 1008.3 |
| 20260507051004 | 14 | 248 | 14.5 | 19.3 | 0.00 | 0.00 | 0.00 | 39 | 1008.4 |
| 20260507050005 | 14 | 247 | 14.5 | 19.3 | 0.00 | 0.00 | 0.00 | 39 | 1008.5 |
| 20260507045005 | 14 | 245 | 16.1 | 19.3 | 0.00 | 0.00 | 0.00 | 39 | 1008.7 |
| 20260507044504 | 14 | 245 | 14.5 | 19.3 | 0.00 | 0.00 | 0.00 | 39 | 1008.8 |
| 20260507044004 | 15 | 253 | 14.5 | 19.3 | 0.00 | 0.00 | 0.00 | 38 | 1008.9 |
| 20260507043504 | 15 | 277 | 14.5 | 19.3 | 0.00 | 0.00 | 0.00 | 38 | 1009.0 |
| 20260507043004 | 15 | 271 | 14.5 | 19.3 | 0.00 | 0.00 | 0.00 | 37 | 1009.1 |
| 20260507042504 | 15 | 284 | 12.9 | 22.5 | 0.00 | 0.00 | 0.00 | 36 | 1009.1 |
| 20260507042005 | 15 | 284 | 16.1 | 22.5 | 0.00 | 0.00 | 0.00 | 35 | 1009.0 |
| 20260507041504 | 15 | 299 | 16.1 | 22.5 | 0.00 | 0.00 | 0.00 | 35 | 1009.1 |
| 20260507041004 | 15 | 288 | 14.5 | 20.9 | 0.00 | 0.00 | 0.00 | 35 | 1009.1 |
| 20260507040005 | 16 | 278 | 14.5 | 22.5 | 0.00 | 0.00 | 0.00 | 34 | 1009.2 |
| 20260507035504 | 16 | 297 | 16.1 | 25.7 | 0.00 | 0.00 | 0.00 | 34 | 1009.3 |
| 20260507035005 | 16 | 302 | 14.5 | 25.7 | 0.00 | 0.00 | 0.00 | 33 | 1009.3 |
| 20260507034505 | 16 | 297 | 16.1 | 29.0 | 0.00 | 0.00 | 0.00 | 33 | 1009.2 |
| 20260507034005 | 16 | 287 | 20.9 | 29.0 | 0.00 | 0.00 | 0.00 | 34 | 1009.2 |
| 20260507033504 | 16 | 295 | 19.3 | 41.8 | 0.00 | 0.00 | 0.00 | 34 | 1009.4 |
| 20260507033004 | 16 | 279 | 22.5 | 41.8 | 0.00 | 0.00 | 0.00 | 35 | 1009.4 |
| 20260507032004 | 16 | 297 | 17.7 | 40.2 | 0.00 | 0.00 | 0.00 | 35 | 1009.2 |
| 20260507031504 | 16 | 305 | 25.7 | 40.2 | 0.00 | 0.00 | 0.00 | 35 | 1009.5 |
| 20260507031004 | 15 | 294 | 19.3 | 24.1 | 0.00 | 0.00 | 0.00 | 35 | 1009.3 |
| 20260507030004 | 15 | 275 | 14.5 | 19.3 | 0.00 | 0.00 | 0.00 | 35 | 1009.0 |
| 20260507025504 | 15 | 262 | 14.5 | 20.9 | 0.00 | 0.00 | 0.00 | 35 | 1009.0 |
| 20260507025004 | 16 | 268 | 16.1 | 22.5 | 0.00 | 0.00 | 0.00 | 34 | 1009.0 |
| 20260507024504 | 16 | 272 | 16.1 | 24.1 | 0.00 | 0.00 | 0.00 | 33 | 1009.0 |
| 20260507023504 | 16 | 259 | 16.1 | 22.5 | 0.00 | 0.00 | 0.00 | 33 | 1009.0 |
| 20260507023004 | 16 | 282 | 14.5 | 22.5 | 0.00 | 0.00 | 0.00 | 33 | 1009.0 |
| 20260507022504 | 16 | 284 | 14.5 | 22.5 | 0.00 | 0.00 | 0.00 | 32 | 1009.0 |
| 20260507021504 | 16 | 285 | 14.5 | 25.7 | 0.00 | 0.00 | 0.00 | 32 | 1009.0 |
| 20260507021004 | 16 | 281 | 19.3 | 25.7 | 0.00 | 0.00 | 0.00 | 31 | 1009.0 |
| 20260507020004 | 17 | 281 | 16.1 | 27.4 | 0.00 | 0.00 | 0.00 | 31 | 1009.1 |
| 20260507015005 | 17 | 284 | 16.1 | 29.0 | 0.00 | 0.00 | 0.00 | 30 | 1009.2 |
| 20260507014005 | 17 | 283 | 20.9 | 33.8 | 0.00 | 0.00 | 0.00 | 30 | 1009.3 |
| 20260507013504 | 17 | 290 | 20.9 | 40.2 | 0.00 | 0.00 | 0.00 | 29 | 1009.3 |
| 20260507013004 | 18 | 297 | 27.4 | 40.2 | 0.00 | 0.00 | 0.00 | 28 | 1009.4 |
| 20260507012504 | 18 | 295 | 24.1 | 32.2 | 0.00 | 0.00 | 0.00 | 28 | 1009.4 |
| 20260507012004 | 18 | 289 | 20.9 | 33.8 | 0.00 | 0.00 | 0.00 | 29 | 1009.5 |
| 20260507011504 | 18 | 302 | 22.5 | 41.8 | 0.00 | 0.00 | 0.00 | 28 | 1009.6 |
| 20260507011004 | 18 | 288 | 29.0 | 41.8 | 0.00 | 0.00 | 0.00 | 28 | 1009.7 |
| 20260507010004 | 18 | 292 | 20.9 | 38.6 | 0.00 | 0.00 | 0.00 | 28 | 1009.7 |
| 20260507005504 | 18 | 300 | 27.4 | 38.6 | 0.00 | 0.00 | 0.00 | 28 | 1009.7 |
| 20260507005004 | 18 | 287 | 19.3 | 38.6 | 0.00 | 0.00 | 0.00 | 29 | 1009.7 |
| 20260507004504 | 18 | 298 | 25.7 | 40.2 | 0.00 | 0.00 | 0.00 | 28 | 1009.9 |
| 20260507004004 | 18 | 283 | 25.7 | 41.8 | 0.00 | 0.00 | 0.00 | 28 | 1009.8 |
| 20260507003504 | 18 | 295 | 22.5 | 41.8 | 0.00 | 0.00 | 0.00 | 29 | 1009.9 |
| 20260507003004 | 17 | 298 | 20.9 | 40.2 | 0.00 | 0.00 | 0.00 | 29 | 1010.0 |
| 20260507002503 | 17 | 298 | 27.4 | 46.7 | 0.00 | 0.00 | 0.00 | 29 | 1010.0 |
| 20260507001504 | 17 | 292 | 20.9 | 40.2 | 0.00 | 0.00 | 0.00 | 28 | 1010.2 |
| 20260507001004 | 18 | 312 | 20.9 | 45.1 | 0.00 | 0.00 | 0.00 | 28 | 1010.2 |
| 20260507000004 | 18 | 304 | 20.9 | 35.4 | 0.00 | 0.00 | 0.00 | 28 | 1010.4 |
| 20260506235004 | 18 | 305 | 32.2 | 48.3 | 0.00 | 0.00 | 0.00 | 27 | 1010.6 |
| 20260506234504 | 18 | 307 | 24.1 | 40.2 | 0.00 | 0.00 | 0.00 | 27 | 1010.6 |
| 20260506234006 | 18 | 303 | 27.4 | 41.8 | 0.00 | 0.00 | 0.00 | 27 | 1010.6 |
| 20260506233507 | 18 | 310 | 29.0 | 41.8 | 0.00 | 0.00 | 0.00 | 27 | 1010.8 |
| 20260506233006 | 18 | 301 | 25.7 | 45.1 | 0.00 | 0.00 | 0.00 | 27 | 1010.8 |
| 20260506232505 | 18 | 315 | 29.0 | 45.1 | 0.00 | 0.00 | 0.00 | 27 | 1010.9 |
| 20260506232006 | 18 | 309 | 27.4 | 46.7 | 0.00 | 0.00 | 0.00 | 27 | 1011.0 |
| 20260506231506 | 17 | 303 | 32.2 | 46.7 | 0.00 | 0.00 | 0.00 | 27 | 1011.1 |
| 20260506231006 | 17 | 278 | 32.2 | 51.5 | 0.00 | 0.00 | 0.00 | 27 | 1011.1 |
| 20260506230006 | 17 | 302 | 27.4 | 49.9 | 0.00 | 0.00 | 0.00 | 26 | 1011.2 |
| 20260506225506 | 17 | 285 | 32.2 | 45.1 | 0.00 | 0.00 | 0.00 | 25 | 1011.3 |
| 20260506225007 | 17 | 293 | 32.2 | 41.8 | 0.00 | 0.00 | 0.00 | 25 | 1011.4 |
| 20260506224506 | 17 | 284 | 27.4 | 41.8 | 0.00 | 0.00 | 0.00 | 25 | 1011.4 |
| 20260506224006 | 17 | 301 | 29.0 | 45.1 | 0.00 | 0.00 | 0.00 | 25 | 1011.6 |
| 20260506222506 | 17 | 284 | 32.2 | 48.3 | 0.00 | 0.00 | 0.00 | 25 | 1012.1 |
| 20260506222007 | 17 | 288 | 27.4 | 48.3 | 0.00 | 0.00 | 0.00 | 26 | 1012.1 |
| 20260506221506 | 17 | 290 | 27.4 | 48.3 | 0.00 | 0.00 | 0.00 | 26 | 1012.2 |
| 20260506221006 | 17 | 281 | 29.0 | 46.7 | 0.00 | 0.00 | 0.00 | 25 | 1012.4 |
| 20260506220006 | 17 | 296 | 33.8 | 46.7 | 0.00 | 0.00 | 0.00 | 26 | 1012.4 |
| 20260506215506 | 17 | 275 | 27.4 | 46.7 | 0.00 | 0.00 | 0.00 | 26 | 1012.5 |
| 20260506215007 | 17 | 277 | 29.0 | 46.7 | 0.00 | 0.00 | 0.00 | 27 | 1012.5 |
| 20260506214506 | 16 | 276 | 29.0 | 49.9 | 0.00 | 0.00 | 0.00 | 26 | 1012.6 |
| 20260506214006 | 16 | 292 | 33.8 | 49.9 | 0.00 | 0.00 | 0.00 | 27 | 1012.7 |
| 20260506213506 | 16 | 305 | 33.8 | 41.8 | 0.00 | 0.00 | 0.00 | 28 | 1012.7 |
| 20260506213006 | 16 | 275 | 30.6 | 46.7 | 0.00 | 0.00 | 0.00 | 28 | 1012.8 |
| 20260506212506 | 16 | 286 | 30.6 | 46.7 | 0.00 | 0.00 | 0.00 | 28 | 1013.0 |
| 20260506212006 | 16 | 285 | 29.0 | 41.8 | 0.00 | 0.00 | 0.00 | 29 | 1012.9 |
| 20260506211006 | 16 | 284 | 32.2 | 41.8 | 0.00 | 0.00 | 0.00 | 27 | 1013.3 |
| 20260506210006 | 15 | 300 | 25.7 | 40.2 | 0.00 | 0.00 | 0.00 | 27 | 1013.4 |
| 20260506205506 | 15 | 272 | 25.7 | 46.7 | 0.00 | 0.00 | 0.00 | 27 | 1013.6 |
| 20260506204506 | 15 | 297 | 25.7 | 46.7 | 0.00 | 0.00 | 0.00 | 28 | 1013.8 |
| 20260506204006 | 15 | 249 | 25.7 | 41.8 | 0.00 | 0.00 | 0.00 | 28 | 1013.9 |